Theta_e
304 304 304 303 303 303 303 304 304 304 304 305 306 307 306 304 304 303 302 309 304 298 300 304 306 303 304 305 301 307 305 307 305 299 298 298 298 300 300 301 299 298 297 296 298 294 291 309 308 301 307 310 309 308
303 304 303 304 303 303 303 303 303 304 303 304 304 305 305 304 303 303 299 306 310 302 300 306 306 308 308 308 306 309 309 306 306 302 302 301 299 301 301 295 305 296 301 300 300 301 310 309 309 312 310 307 308 307
303 303 304 304 303 303 303 303 303 303 303 303 303 303 304 304 303 303 301 305 304 302 301 301 300 307 310 310 312 305 308 310 311 314 307 305 300 303 296 298 301 304 307 301 303 307 309 310 312 310 310 308 309 309
303 303 303 303 303 303 303 303 302 302 303 303 303 303 302 302 303 303 300 304 303 301 295 301 311 308 312 312 310 312 311 313 312 309 303 302 299 306 300 302 300 304 304 302 302 305 305 307 308 309 309 309 309 309
303 303 303 303 303 303 303 303 303 303 302 303 302 303 303 303 303 303 303 304 305 299 293 297 304 309 311 310 308 309 308 308 305 301 299 298 302 302 303 303 299 304 303 299 298 305 305 305 308 309 307 307 307 308
303 303 303 303 303 302 302 302 302 303 302 302 302 302 303 303 303 300 296 303 305 304 296 293 305 305 307 307 307 307 306 306 304 301 301 303 310 304 298 297 304 306 308 308 304 307 308 308 308 308 307 307 309 308
302 303 303 303 302 302 302 302 302 303 302 302 302 301 302 303 302 297 294 298 302 306 296 293 296 304 307 306 305 305 308 305 304 302 300 301 303 304 300 296 303 305 307 307 308 308 305 307 305 308 310 310 310 310
301 302 303 303 302 302 302 302 302 302 303 302 302 301 301 302 301 297 302 302 302 299 299 292 294 300 307 301 299 304 301 302 302 301 302 299 301 302 296 303 305 306 306 305 306 308 307 309 308 308 310 310 309 307
300 301 302 302 302 301 301 301 301 302 302 302 301 301 300 297 294 297 303 303 304 295 288 294 291 291 305 302 303 301 302 296 302 298 298 300 297 295 300 302 303 305 304 304 306 306 306 306 306 308 309 308 306 306
299 300 302 302 302 301 301 300 300 300 300 300 298 292 288 293 301 302 296 292 292 292 293 290 297 293 300 299 299 299 301 297 295 298 302 298 295 303 305 305 306 306 306 307 304 303 305 306 307 307 306 307 306 306
299 299 300 302 301 300 300 300 300 300 300 295 289 290 297 302 296 292 288 287 288 288 293 293 295 294 301 294 297 302 298 298 292 296 296 294 294 301 306 305 307 308 307 307 308 309 309 308 306 305 305 305 305 305
299 299 301 302 301 300 300 301 300 299 296 295 295 298 296 292 289 285 286 289 288 286 293 292 294 296 297 301 296 298 293 296 290 300 296 291 298 305 306 306 307 307 308 308 309 308 307 306 306 304 304 305 305 306
299 301 301 301 301 301 300 301 300 300 298 296 292 290 289 288 283 282 282 286 287 292 295 295 293 296 297 298 294 293 289 289 297 292 291 294 304 305 306 307 307 308 309 308 307 306 306 305 305 305 304 305 305 305
300 301 301 301 301 301 300 300 300 299 296 289 286 281 284 283 286 288 289 288 291 296 296 296 293 293 296 292 292 288 293 294 288 287 289 298 305 304 305 306 305 304 305 304 304 304 304 304 304 305 305 305 305 304
300 300 300 301 300 300 300 300 300 298 293 287 289 283 285 290 292 293 294 293 294 298 297 296 294 295 292 290 293 292 289 287 289 289 298 305 307 305 305 306 305 304 304 304 304 304 303 304 304 305 306 305 304 304
298 299 299 301 300 300 300 300 297 296 293 290 290 287 290 289 289 292 292 293 297 294 293 294 289 286 288 291 289 288 288 287 293 300 304 306 306 307 306 305 306 305 305 305 305 305 304 304 304 305 306 304 304 303
298 297 298 299 299 299 299 295 292 288 290 288 288 292 290 289 289 291 293 294 299 293 287 290 286 286 293 289 288 291 290 296 300 303 306 307 307 307 308 306 306 305 306 306 305 305 305 306 307 305 304 305 306 306
297 299 299 300 299 295 294 296 290 290 286 289 288 289 292 293 292 292 295 296 295 293 292 289 293 289 288 287 289 296 300 301 300 298 305 305 306 306 307 306 306 305 304 304 304 305 305 305 305 305 306 308 306 305
298 300 299 299 298 295 289 292 294 286 289 291 292 293 293 293 295 295 295 297 297 298 294 292 289 289 291 295 297 299 301 302 300 301 304 306 304 304 304 306 304 304 304 305 305 304 305 307 306 306 306 307 306 304
299 298 298 298 297 292 289 291 296 290 287 290 292 291 292 292 293 294 295 295 294 294 291 289 290 292 294 299 301 300 299 299 299 299 300 303 304 305 304 304 304 306 305 305 305 302 305 305 306 307 308 306 304 303
297 298 297 297 296 295 293 292 290 290 290 289 291 291 290 293 292 291 292 295 292 291 289 293 294 296 299 302 303 301 300 301 300 300 299 299 302 304 303 304 304 303 302 302 302 302 302 304 306 307 306 306 303 305
299 298 297 297 293 292 291 293 291 293 290 290 290 291 289 289 289 291 294 291 290 292 293 294 295 296 296 297 299 301 302 302 302 301 295 297 298 299 300 301 302 301 301 302 302 302 303 306 307 306 305 299 303 303
297 297 296 294 288 288 285 294 287 289 285 288 290 287 288 290 292 297 291 293 293 295 296 296 297 298 297 298 299 299 301 301 299 298 299 299 300 301 301 301 302 301 301 302 304 304 306 297 300 305 303 303 302 300
296 293 289 288 288 284 290 287 288 287 288 286 285 284 286 289 294 290 287 291 294 298 297 296 296 295 296 297 295 296 297 299 298 299 300 299 298 299 301 301 302 303 304 305 305 305 307 306 300 304 304 302 300 296
288 287 287 283 289 287 286 287 287 286 285 288 286 287 287 289 286 286 285 288 289 293 296 299 296 295 294 295 296 297 300 299 298 297 300 300 300 300 300 302 303 305 307 306 306 306 306 306 306 304 302 300 298 295
282 287 284 287 288 287 287 285 288 288 289 287 287 291 289 287 285 282 285 285 287 289 290 295 298 296 296 297 298 299 300 303 301 298 299 301 302 302 303 302 303 305 309 308 307 306 305 303 304 302 300 296 290 294
282 286 290 293 290 289 288 290 291 288 286 286 290 288 288 283 282 285 288 288 288 290 293 295 297 298 298 299 301 302 303 304 304 303 306 306 307 310 309 306 305 308 309 307 306 305 304 303 302 301 299 299 298 296
287 288 285 288 287 289 286 288 289 288 289 293 290 285 282 283 284 289 289 293 294 293 292 293 294 295 298 300 303 304 303 306 307 307 306 306 308 310 308 308 308 291 305 301 302 303 303 302 300 300 300 297 296 296
287 290 289 288 289 290 290 289 289 291 293 291 287 286 287 290 293 293 294 295 295 293 291 290 290 293 295 298 301 302 303 303 300 298 298 300 302 303 307 307 307 307 305 299 286 293 298 299 301 301 300 297 296 295
291 295 291 290 289 289 292 294 293 295 296 295 294 293 292 293 295 297 296 295 293 292 292 292 291 291 290 291 293 296 299 300 301 300 299 300 301 305 307 306 305 304 304 302 301 299 287 297 295 300 297 295 294 293
297 296 292 292 290 293 296 298 299 298 296 295 294 292 291 292 295 296 296 296 296 295 293 291 290 290 289 290 291 291 293 297 300 302 302 303 305 305 306 304 304 303 302 301 299 298 298 297 297 296 294 293 292 292
297 294 293 290 292 297 298 297 295 293 293 293 292 294 293 291 288 292 296 296 295 294 291 292 291 290 293 293 294 295 289 297 298 298 300 304 303 304 304 302 302 301 299 298 297 296 296 297 296 295 293 292 293 293
296 297 297 296 294 294 297 296 294 293 293 291 291 293 292 291 288 292 297 298 296 295 296 295 295 294 294 293 293 295 295 298 291 286 286 285 286 292 300 301 301 299 298 296 296 295 295 296 295 295 294 293 293 294
Wind_Speed
12 10 10 10 10 10 10 11 10 10 10 10 10 8 7 6 8 8 10 11 8 10 17 21 18 12 11 8 9 11 5 9 9 12 12 10 9 11 15 12 12 9 6 12 12 15 9 15 13 7 6 3 7 10
10 11 10 10 10 9 10 10 10 10 10 9 9 9 7 7 8 8 8 11 7 9 14 19 18 19 17 15 8 6 9 3 4 6 8 9 9 8 10 9 9 11 9 2 6 3 4 4 1 7 1 4 8 9
10 11 11 11 10 10 10 9 10 10 10 10 10 10 8 8 9 8 10 11 9 10 12 16 17 19 18 13 7 6 2 9 4 7 6 5 8 3 6 7 10 3 1 8 7 9 10 13 16 10 6 5 5 9
11 11 12 11 11 11 11 10 10 10 10 10 10 9 9 10 10 9 9 9 9 7 8 10 6 9 4 8 12 11 9 6 7 5 5 6 6 5 5 6 2 7 5 6 6 6 11 7 12 9 7 5 7 10
13 11 11 11 10 10 10 11 11 11 11 9 8 10 10 10 9 9 9 9 10 8 6 11 19 18 8 7 9 10 9 8 6 5 6 7 8 10 7 10 9 8 9 7 6 6 4 6 4 6 7 9 9 8
10 11 11 10 9 9 10 10 11 11 10 10 9 9 9 9 7 7 8 4 7 5 5 6 2 11 10 11 10 10 7 7 7 8 7 9 10 4 6 9 13 10 12 5 4 7 5 3 6 7 8 6 5 9
11 12 13 11 10 9 10 11 12 10 10 10 10 9 9 7 6 6 4 2 11 7 4 5 6 12 12 10 8 6 7 6 6 7 9 10 9 6 9 12 11 13 8 4 4 6 9 7 4 5 7 4 4 7
12 13 14 12 11 10 10 10 10 11 11 10 8 8 7 7 6 7 4 6 3 4 5 5 4 6 11 7 8 9 8 7 6 7 6 10 9 8 9 11 13 12 11 12 11 10 10 8 6 4 6 7 4 7
12 13 12 11 11 9 8 8 10 11 6 5 4 4 2 1 2 3 10 4 4 1 3 6 10 5 4 10 8 7 7 8 5 9 10 7 10 9 9 16 15 11 7 8 8 10 10 4 5 4 4 4 6 5
13 12 12 11 10 8 8 8 5 1 2 2 2 2 3 5 3 10 3 2 3 3 5 6 10 5 4 8 7 7 6 6 5 9 7 12 12 13 13 11 8 4 5 6 6 8 5 7 5 6 7 6 6 6
13 13 14 12 9 7 5 5 4 2 5 1 2 3 2 10 2 1 3 4 5 5 7 9 14 6 5 4 4 3 3 3 4 5 7 5 9 11 16 16 11 9 9 8 0 8 9 8 7 6 6 4 4 6
15 16 15 12 11 9 7 7 9 3 2 1 2 1 2 2 2 4 5 5 7 7 7 13 13 9 3 5 3 6 4 5 5 5 4 5 7 7 9 7 3 1 1 11 13 7 11 11 5 3 3 5 6 7
16 17 12 11 12 10 7 8 11 6 5 2 1 3 3 3 6 6 9 6 7 6 4 7 11 8 4 4 2 2 4 4 3 6 5 4 7 11 10 8 10 7 10 9 11 11 10 7 5 4 4 6 5 5
14 10 11 11 13 10 8 8 11 7 2 2 3 5 6 6 8 5 0 1 4 8 4 5 6 4 3 5 2 5 4 4 5 8 11 7 10 11 10 9 13 10 10 12 10 8 9 5 5 3 5 5 6 6
7 13 15 14 11 9 8 8 11 3 3 3 4 5 8 7 3 2 2 1 1 5 8 6 2 2 3 4 4 5 4 6 7 12 3 7 11 11 11 11 13 11 8 7 4 4 4 4 2 4 8 4 3 4
4 8 5 12 11 7 8 7 2 2 3 4 7 8 4 6 6 6 5 2 4 4 5 2 1 3 4 4 8 7 6 5 2 5 6 8 5 10 12 10 1 11 9 6 5 4 4 3 3 6 4 1 3 3
9 2 10 7 8 7 13 3 2 3 4 5 6 8 8 6 6 5 3 4 2 2 1 1 3 4 4 5 6 5 3 6 7 4 3 7 8 7 15 15 9 8 9 7 2 0 1 1 6 1 3 3 6 3
2 8 12 13 9 6 1 4 2 3 6 8 8 8 6 7 8 4 1 2 2 1 2 2 4 4 3 4 6 7 7 7 7 4 4 10 8 4 3 7 9 7 4 4 3 1 3 4 4 3 3 2 1 5
3 8 13 14 5 5 5 6 4 5 8 9 8 8 7 6 9 4 4 5 5 5 3 4 5 3 1 5 6 6 6 5 4 2 9 12 10 8 10 7 5 5 5 5 5 6 3 5 5 1 2 2 2 2
12 13 11 9 2 2 4 3 4 5 5 5 5 7 7 7 8 8 6 5 5 5 3 3 4 3 5 6 6 6 6 6 4 4 5 7 5 5 3 4 3 5 5 8 10 12 8 7 5 5 2 2 3 2
4 5 6 5 4 6 3 2 4 5 5 5 6 5 6 6 6 8 7 7 7 7 6 6 7 4 4 9 5 6 7 3 5 4 4 4 2 0 4 5 6 7 7 6 7 1 7 2 5 3 3 1 3 3
3 7 3 5 3 3 4 4 3 2 3 6 7 6 6 6 6 7 7 8 9 9 8 8 8 6 6 6 8 9 9 8 10 8 5 4 3 4 5 6 7 6 5 6 5 6 1 7 3 2 5 5 5 4
5 3 3 4 3 2 5 5 3 3 4 3 3 3 3 3 2 2 3 7 9 8 9 9 10 9 8 8 6 5 10 10 8 5 5 6 6 5 5 5 5 6 7 6 5 4 7 5 5 2 5 4 6 3
3 4 4 3 6 4 3 5 3 3 4 4 3 3 2 2 2 2 3 2 6 9 10 9 7 7 8 9 8 7 7 7 7 6 7 8 7 7 6 6 7 6 7 5 5 2 3 4 5 3 3 4 5 4
4 3 2 5 4 4 5 5 6 4 5 6 4 3 3 1 1 2 3 5 7 7 8 9 7 9 8 8 9 10 11 9 8 9 8 8 8 7 8 8 8 4 5 6 7 4 4 3 3 3 5 5 6 6
4 3 2 4 2 4 4 5 4 3 2 2 1 3 3 3 3 4 3 4 3 3 6 8 7 7 7 3 1 6 2 1 5 6 7 7 5 5 5 5 6 6 6 5 4 3 2 3 5 5 7 7 8 7
4 1 1 3 4 4 4 3 3 3 2 2 2 1 2 5 4 3 3 2 2 3 6 6 5 6 6 7 6 5 4 5 6 6 5 6 5 5 4 4 4 3 4 4 3 3 3 3 5 6 5 5 7 7
2 3 4 3 3 2 3 3 3 6 5 3 2 6 4 5 4 2 1 3 4 4 4 4 5 5 3 4 5 5 6 5 7 8 5 5 5 3 3 3 4 4 3 5 4 3 2 3 5 6 7 8 6 6
3 3 3 3 2 2 5 5 5 5 9 9 8 5 3 2 5 5 5 5 4 5 4 4 5 4 4 3 3 3 3 4 6 5 6 5 1 3 3 2 3 5 6 8 9 9 9 3 5 5 9 8 6 7
2 2 0 6 5 5 5 4 5 6 7 8 7 7 4 3 6 6 4 4 5 5 5 4 4 4 3 4 3 3 2 3 4 5 5 3 3 4 2 2 2 3 4 5 6 7 3 6 7 8 8 7 6 7
2 3 4 4 2 3 4 3 4 6 6 5 6 6 5 3 2 6 7 6 5 5 5 5 4 4 4 4 3 2 1 2 4 2 1 3 5 3 1 5 6 5 5 5 6 4 5 5 5 7 7 8 8 8
2 4 3 4 4 3 1 2 4 8 9 8 8 8 7 6 5 5 6 6 7 7 5 6 6 5 6 4 3 2 4 2 4 5 8 6 7 7 5 4 3 5 5 4 4 4 6 7 7 7 7 9 9 9
2 2 2 2 4 5 5 4 4 5 7 10 11 9 9 6 5 4 6 6 8 8 6 3 4 3 7 7 7 5 4 2 4 4 5 5 7 9 10 9 6 6 4 3 3 4 4 9 8 9 9 9 10 10
Wind_Direction
301 295 290 291 296 302 303 314 319 310 293 292 299 280 262 282 289 291 293 296 257 277 282 292 311 298 284 286 285 5 109 231 192 224 233 238 239 241 239 252 263 199 163 246 242 254 243 1 343 341 49 358 10 15
297 298 291 291 291 291 293 298 303 300 303 301 300 284 262 272 276 290 275 258 230 253 282 310 293 291 293 306 327 270 275 256 245 220 227 250 251 243 244 240 223 245 266 237 223 147 236 110 303 296 356 9 10 5
289 293 292 291 294 296 298 297 294 292 288 289 284 279 259 257 267 264 294 311 298 264 266 252 252 245 234 242 251 275 350 348 30 350 327 288 257 250 256 281 275 171 196 262 283 164 188 183 203 227 252 100 23 356
275 283 292 285 284 286 289 284 286 290 286 275 272 268 259 267 269 274 277 285 292 286 281 278 272 177 202 222 220 238 278 309 301 295 300 288 295 344 303 301 252 276 139 265 264 287 285 350 37 32 18 7 11 342
264 269 281 281 275 283 292 295 285 280 286 274 274 273 261 259 273 272 269 267 265 271 303 314 317 282 216 190 227 233 242 251 277 254 245 263 276 291 280 282 287 279 281 274 292 22 358 326 95 56 2 330 325 326
268 262 270 272 267 281 294 304 305 270 271 267 262 276 280 265 263 266 247 217 353 306 278 272 231 264 185 201 222 219 223 223 234 254 256 255 251 266 268 255 261 267 256 254 303 325 295 332 11 337 306 294 340 2
291 273 266 265 263 273 284 289 306 276 255 260 252 268 284 276 245 251 0 311 326 293 247 272 245 219 210 189 211 217 206 212 230 240 245 263 255 214 247 261 282 299 325 235 232 266 254 250 259 317 356 339 333 340
294 291 268 258 252 261 275 288 288 294 261 243 256 257 293 270 276 262 316 180 295 330 277 256 243 256 176 189 207 202 201 204 223 236 237 230 246 248 246 248 254 272 286 294 274 208 232 243 242 245 71 32 353 333
295 299 280 251 238 252 268 278 295 291 235 229 230 124 53 251 224 255 123 96 76 351 277 270 246 239 186 223 198 178 205 201 216 216 230 251 230 228 227 233 244 251 243 262 259 242 248 224 111 99 58 354 29 359
283 292 296 240 231 247 253 267 276 358 194 213 109 131 214 211 200 126 69 206 186 218 227 250 260 227 283 239 177 182 190 215 217 214 213 214 240 251 238 239 262 210 268 288 276 263 62 55 72 55 64 39 19 345
282 284 284 238 215 223 239 237 239 154 105 112 178 218 298 133 128 176 199 205 187 225 216 222 246 252 271 304 213 320 233 209 211 208 217 225 248 242 234 231 244 239 243 246 167 86 93 87 64 51 44 28 342 345
274 281 268 220 206 216 223 202 166 206 176 224 315 152 194 170 182 234 193 197 212 232 204 200 205 190 291 246 260 178 230 197 235 106 190 224 230 195 130 124 132 333 77 100 108 143 100 90 83 67 43 25 13 4
280 273 221 206 202 214 212 199 197 122 137 179 265 187 218 164 232 230 201 194 204 206 224 195 177 160 210 245 306 218 244 245 322 198 218 238 99 115 120 126 106 107 119 129 119 104 105 111 103 54 40 46 12 7
295 185 175 219 200 205 203 201 183 146 217 238 214 215 230 198 232 231 346 316 320 306 221 158 139 137 185 204 151 228 227 247 238 228 225 196 142 130 134 149 113 135 134 129 128 128 133 132 107 132 73 27 2 12
272 189 195 198 183 193 207 205 189 167 196 240 269 242 225 242 270 281 291 148 310 340 338 133 150 122 136 190 208 245 222 225 225 223 96 99 130 151 153 141 140 132 112 114 120 152 113 98 154 80 88 51 1 324
94 94 203 183 186 183 169 122 110 220 236 219 235 256 320 310 324 313 307 97 139 83 305 65 202 208 182 210 187 200 210 221 38 52 107 126 171 129 113 112 111 139 137 145 190 176 132 212 52 86 79 340 283 304
196 210 173 156 157 161 135 101 136 244 221 235 244 237 235 230 258 290 332 345 56 111 295 196 232 185 213 202 194 197 230 72 37 45 94 116 127 126 139 153 140 136 174 186 164 103 12 166 94 129 281 203 241 294
253 144 156 154 141 95 10 177 209 257 235 237 250 263 311 281 261 256 140 166 159 177 221 251 276 243 215 177 182 44 84 104 96 343 116 108 95 97 114 133 183 157 157 165 204 228 249 246 249 238 202 88 204 226
293 130 147 137 156 179 185 195 214 243 236 253 255 260 235 242 260 256 203 179 148 239 216 230 238 241 7 56 45 58 53 68 76 241 113 128 156 170 238 154 147 174 183 204 229 250 285 212 225 215 125 148 231 19
131 141 154 155 124 254 257 189 208 249 273 287 277 263 263 262 271 273 210 217 199 201 253 250 265 56 33 52 50 82 93 42 331 264 137 145 151 154 182 179 176 174 213 224 229 221 234 233 124 95 350 243 279 131
153 142 157 209 226 229 280 254 241 255 290 277 273 270 262 257 237 240 249 231 222 227 223 239 278 314 93 124 119 105 107 117 315 341 119 177 248 212 179 195 213 232 246 253 262 224 196 332 107 73 57 89 148 69
118 170 250 180 257 260 257 230 244 247 239 263 293 285 280 269 246 242 240 229 231 232 243 245 256 264 250 210 163 164 159 183 219 244 194 171 235 247 233 231 234 251 263 286 299 305 45 109 110 40 100 132 85 86
167 220 239 228 245 243 268 333 301 310 273 299 311 245 227 245 284 327 244 245 240 232 229 235 240 256 261 266 271 249 184 211 238 280 288 257 246 248 263 266 266 267 271 275 290 305 99 118 139 36 116 113 107 115
158 247 241 223 201 244 198 194 209 234 222 222 235 255 230 203 314 254 257 32 338 327 306 253 206 221 232 232 244 238 237 228 238 242 250 257 263 264 266 267 268 264 273 278 269 211 153 90 102 169 171 119 120 141
237 262 178 257 242 236 235 210 191 220 248 197 206 193 134 138 192 37 9 350 341 308 329 306 251 211 226 221 208 208 226 255 238 228 229 231 244 254 256 255 258 294 13 15 41 15 51 48 106 139 134 135 137 146
243 214 205 302 308 275 309 314 353 296 315 347 90 130 123 181 104 31 354 318 313 322 319 307 320 284 234 218 329 349 56 352 276 243 246 275 295 305 14 359 331 12 8 43 78 60 62 336 213 163 146 120 120 145
263 305 308 344 328 313 289 314 291 268 263 353 41 14 45 64 56 4 302 300 296 303 343 353 333 319 344 335 359 333 324 335 307 328 355 341 359 355 347 21 17 35 7 344 321 283 281 198 144 129 120 125 144 156
324 295 287 310 259 231 271 279 17 13 359 40 40 46 62 24 8 304 290 31 17 18 360 0 1 356 346 321 315 324 320 355 324 306 312 320 318 316 10 4 78 44 51 28 5 7 3 120 163 187 157 134 141 145
254 233 245 283 202 246 22 41 44 23 18 47 72 74 67 36 9 4 35 16 9 0 2 9 10 354 2 6 16 9 347 334 315 292 255 261 207 296 290 203 184 190 126 102 57 54 48 22 184 133 117 131 137 136
285 256 113 43 11 42 33 59 71 49 63 70 84 95 95 82 44 34 23 12 9 3 9 14 4 10 13 14 20 20 26 330 292 284 305 13 13 335 318 215 225 140 134 128 125 116 88 115 104 102 115 127 132 135
280 315 81 81 41 41 52 15 122 142 133 114 106 112 122 137 110 39 28 13 13 5 23 26 25 28 13 0 6 2 333 312 327 71 87 265 221 233 17 76 75 66 58 86 110 128 133 125 120 128 141 136 137 143
188 183 172 133 138 157 231 25 54 82 92 80 82 112 115 79 77 21 16 16 15 16 48 26 27 13 9 355 350 336 268 290 27 17 341 6 24 8 38 46 77 97 95 96 113 132 139 137 141 145 144 145 147 145
281 44 100 73 132 164 173 202 145 91 73 69 64 55 69 66 74 11 348 31 39 19 34 41 33 48 25 25 21 11 19 81 108 78 61 38 31 25 16 14 41 51 52 58 103 147 160 150 143 145 147 147 145 145